Regional Weather Roundup
Issued by NWS

Home | Current Version | Previous Version | Text Only | Print | Product List | Glossary On
Versions: 1 2 3 4 5 6 7 8 9 10 11 12 13 14 15 16 17 18 19 20 21 22 23 24 25 26 27 28 29 30 31 32 33 34 35 36 37 38 39 40 41 42 43 44 45 46 47 48 49 50
000
ASUS44 KOUN 231610
RWROK

WEATHER ROUNDUP FOR OKLAHOMA
NATIONAL WEATHER SERVICE NORMAN OK
1100 AM CDT TUE SEP 23 2014

NOTE: "FAIR" INDICATES FEW OR NO CLOUDS BELOW 12,000 FEET WITH NO
      SIGNIFICANT WEATHER AND/OR OBSTRUCTIONS TO VISIBILITY.

OKZ001>007-009>012-014-015-017-231700-
NORTHWEST OKLAHOMA AND THE PANHANDLE

CITY           SKY/WX    TMP DP  RH WIND       PRES   REMARKS
GAGE           PTSUNNY   74  51  44 S26G35    30.14F
ENID/WOODRING  MOSUNNY   75  54  46 S20       30.18F
$$

OKZ016-021>023-033>039-044-045-231700-
SOUTHWEST OKLAHOMA

CITY           SKY/WX    TMP DP  RH WIND       PRES   REMARKS
LAWTON/REGL    SUNNY     73  52  47 SE13      30.21F
LAWTON/FT SILL SUNNY     74  53  48 S13       30.20F
FREDERICK      SUNNY     74  53  48 S15       30.18F
CLINTON        SUNNY     75  50  41 S20G28    30.20F
HOBART         SUNNY     74  52  46 S20       30.20F
ALTUS AFB      SUNNY     74  53  48 SE17      30.20S
$$

OKZ018>020-024>031-231700-
CENTRAL OKLAHOMA

CITY           SKY/WX    TMP DP  RH WIND       PRES   REMARKS
OKLAHOMA CITY  MOSUNNY   73  52  47 S20       30.22S
OKC/WILEY POST SUNNY     72  52  49 S18       30.21S
OKC/TINKER AFB SUNNY     71  53  52 S13       30.22S
STILLWATER     SUNNY     72  53  51 S15       30.22S
GUTHRIE        SUNNY     73  54  51 S16G22    30.21S
$$

OKZ008-013-054>072-231700-
NORTHEAST OKLAHOMA

CITY           SKY/WX    TMP DP  RH WIND       PRES   REMARKS
TULSA          PTSUNNY   71  55  56 S13       30.25S
TULSA/JONES    PTSUNNY   71  55  56 S13       30.25S
PONCA CITY     SUNNY     72  54  53 S13G22    30.20F
BARTLESVILLE   SUNNY     70  58  65 S10G16    30.25F
MUSKOGEE       SUNNY     70  52  52 SE12      30.27S
$$

OKZ032-040>043-046>053-073>077-231700-
SOUTH CENTRAL/SOUTHEAST OKLAHOMA

CITY           SKY/WX    TMP DP  RH WIND       PRES   REMARKS
ARDMORE/DWNTWN SUNNY     70  54  56 SE7       30.23S
MCALESTER      MOSUNNY   71  52  50 SE5       30.25S
$$



USA.gov is the U.S. government's official web portal to all federal, state and local government web resources and services.